1485334801.16,2475,10.63,73538.5,1.33,-36.13,-36.73,0,*4E
1485334802.4,2476,10.63,73534.5,1.33,-35.41,-36.01,0,*4C
1485334803.67,2477,10.63,73532.8,1.33,-35.95,-36.49,0,*48
1485334804.89,2478,10.63,73534.3,1.33,-35.59,-36.19,0,*42
1485334806.12,2479,10.63,73534.3,1.33,-35.53,-36.19,0,*49
1485334807.34,2480,10.63,73530.5,1.33,-35.59,-36.31,0,*4F
1485334808.53,2481,10.63,73534.8,1.35,-36.67,-37.45,0,*44
1485334809.74,2482,10.63,73532.0,1.33,-36.19,-36.85,0,*45
1485334810.96,2483,10.63,73530.5,1.33,-35.59,-36.31,0,*4C
1485334812.21,2484,10.63,73532.5,1.33,-35.41,-36.01,0,*41
1485334813.4,2485,10.63,73530.3,1.35,-35.59,-36.31,0,*4C
1485334814.63,2486,10.63,73534.0,1.35,-35.53,-36.13,0,*45
1485334815.87,2487,10.63,73532.0,1.35,-35.53,-36.13,0,*44
1485334817.06,2488,10.63,73536.0,1.35,-35.47,-36.07,0,*4B
1485334818.31,2489,10.63,73538.3,1.35,-35.35,-35.95,0,*47
1485334819.54,2490,10.63,73536.0,1.35,-34.65,-35.29,0,*4C
1485334820.76,2491,10.63,73534.3,1.35,-35.47,-36.13,0,*46
1485334821.96,2492,10.63,73536.3,1.35,-35.17,-35.77,0,*41
1485334823.22,2493,10.63,73536.3,1.37,-34.95,-35.89,0,*48
1485334824.44,2494,10.69,73540.8,1.35,-37.45,-38.23,0,*4E
1485334825.65,2495,10.63,73534.0,1.35,-36.49,-37.27,0,*49
1485334826.87,2496,10.63,73534.8,1.35,-36.07,-36.61,0,*43
1485334828.1,2497,10.63,73528.5,1.35,-35.77,-36.61,0,*46
1485334829.34,2498,10.69,73538.3,1.35,-35.95,-36.61,0,*45
1485334830.59,2499,10.63,73532.0,1.33,-35.41,-36.01,0,*4D
1485334831.85,2500,10.63,73532.5,1.33,-35.53,-36.13,0,*4C
1485334833.05,2501,10.63,73534.8,1.35,-35.77,-36.43,0,*48
1485334834.27,2502,10.63,73534.5,1.35,-35.89,-36.61,0,*4A
1485334835.46,2503,10.63,73532.5,1.35,-35.71,-36.43,0,*4C
1485334836.68,2504,10.63,73530.5,1.35,-36.79,-37.57,0,*44
1485334837.87,2505,10.63,73536.5,1.35,-35.47,-36.07,0,*4F
1485334839.11,2506,10.63,73534.5,1.35,-35.53,-36.25,0,*49
1485334840.38,2507,10.63,73532.5,1.33,-35.07,-35.65,0,*48
1485334841.65,2508,10.63,73534.3,1.33,-36.91,-37.69,0,*45
1485334842.89,2509,10.63,73534.0,1.33,-35.77,-36.37,0,*45
1485334844.16,2510,10.63,73536.5,1.33,-35.07,-35.65,0,*4E
1485334845.39,2511,10.63,73536.0,1.35,-34.95,-35.59,0,*4C
1485334846.58,2512,10.63,73534.3,1.35,-35.13,-35.71,0,*4A
1485334847.81,2513,10.63,73538.3,1.35,-34.83,-35.29,0,*4E
1485334849.01,2514,10.63,73536.3,1.35,-35.01,-35.59,0,*45
1485334850.24,2515,10.63,73534.3,1.35,-35.53,-36.13,0,*4E
1485334851.49,2516,10.63,73532.5,1.37,-35.71,-36.25,0,*4A
1485334852.71,2517,10.63,73532.0,1.35,-35.89,-36.49,0,*44
1485334853.93,2518,10.63,73536.3,1.35,-35.59,-36.25,0,*4C
1485334855.12,2519,10.63,73532.3,1.35,-35.17,-35.71,0,*45
1485334856.34,2520,10.63,73532.3,1.37,-34.89,-35.47,0,*4E
1485334857.58,2521,10.63,73532.8,1.37,-35.23,-35.71,0,*4B
1485334858.86,2522,10.63,73534.5,1.37,-34.95,-35.65,0,*41
1485334860.09,2523,10.63,73532.3,1.37,-34.71,-35.29,0,*42
1485334861.34,2524,10.63,73534.0,1.37,-37.15,-37.93,0,*47
1485334862.53,2525,10.63,73532.8,1.35,-37.57,-38.43,0,*40
1485334863.73,2526,10.63,73538.3,1.35,-36.07,-36.67,0,*4F
1485334864.98,2527,10.63,73532.3,1.33,-36.85,-37.51,0,*46
1485334866.18,2528,10.63,73534.8,1.31,-36.73,-37.45,0,*47
1485334867.43,2529,10.63,73530.8,1.31,-35.83,-36.49,0,*47
1485334868.64,2530,10.63,73532.8,1.31,-35.65,-36.31,0,*48
1485334869.87,2531,10.63,73532.8,1.31,-35.83,-36.55,0,*43
1485334871.14,2532,10.63,73532.0,1.33,-35.83,-36.49,0,*4F
1485334872.39,2533,10.63,73534.5,1.31,-35.41,-36.13,0,*4D
1485334873.59,2534,10.63,73532.5,1.31,-35.01,-35.59,0,*43
1485334874.83,2535,10.63,73532.3,1.33,-35.41,-36.01,0,*4A
1485334876.08,2536,10.63,73536.3,1.33,-35.83,-36.73,0,*42
1485334877.31,2537,10.63,73534.0,1.31,-36.31,-36.91,0,*47
1485334878.55,2538,10.63,73538.8,1.31,-36.37,-37.09,0,*4E
1485334879.77,2539,10.63,73536.5,1.31,-36.31,-36.91,0,*49
1485334880.98,2540,10.63,73534.8,1.31,-36.01,-36.67,0,*4D
1485334882.18,2541,10.63,73536.0,1.31,-36.01,-36.73,0,*49
1485334883.43,2542,10.63,73532.3,1.33,-35.35,-36.01,0,*49
1485334884.66,2543,10.63,73534.8,1.31,-35.65,-36.37,0,*4A
1485334885.89,2544,10.63,73536.0,1.31,-35.95,-36.73,0,*42
1485334887.14,2545,10.63,73532.3,1.31,-36.37,-37.09,0,*44
1485334888.36,2546,10.63,73534.8,1.31,-35.35,-36.01,0,*4F
1485334889.6,2547,10.63,73532.8,1.31,-34.71,-35.53,0,*4B
1485334890.8,2548,10.63,73534.5,1.31,-35.17,-35.77,0,*43
1485334892.03,2549,10.63,73532.3,1.31,-34.71,-35.35,0,*45
1485334893.27,2550,10.63,73536.0,1.31,-35.23,-35.65,0,*4E
1485334894.52,2551,10.63,73532.5,1.31,-34.65,-35.23,0,*4E
1485334895.75,2552,10.63,73536.5,1.31,-34.71,-35.35,0,*4F
1485334897.0,2553,10.63,73538.5,1.33,-35.07,-35.59,0,*46
1485334898.22,2554,10.63,73538.0,1.33,-34.89,-35.59,0,*46
1485334899.45,2555,10.63,73534.0,1.35,-35.47,-35.95,0,*42
1485334900.7,2556,10.63,73534.0,1.37,-35.23,-35.89,0,*4C
1485334901.98,2557,10.63,73534.3,1.33,-35.07,-35.83,0,*45
1485334903.23,2558,10.63,73538.8,1.33,-35.77,-36.49,0,*48
1485334904.47,2559,10.63,73534.0,1.33,-35.65,-36.31,0,*45
1485334905.66,2560,10.63,73534.0,1.35,-35.13,-35.59,0,*45
1485334906.9,2561,10.63,73534.5,1.35,-35.53,-36.25,0,*48
1485334908.1,2562,10.63,73532.8,1.35,-35.17,-35.77,0,*4F
1485334909.35,2563,10.63,73536.8,1.35,-35.35,-35.95,0,*42
1485334910.56,2564,10.63,73536.8,1.35,-35.71,-36.13,0,*48
1485334911.78,2565,10.63,73534.0,1.37,-35.13,-35.71,0,*48
1485334913.03,2566,10.63,73534.8,1.35,-35.35,-35.95,0,*47
1485334914.25,2567,10.63,73538.8,1.35,-36.25,-36.85,0,*46
1485334915.47,2568,10.63,73538.8,1.35,-36.25,-37.03,0,*46
1485334916.66,2569,10.63,73536.3,1.35,-35.71,-36.43,0,*40
1485334917.89,2570,10.63,73536.3,1.35,-35.77,-36.61,0,*4E
1485334919.13,2571,10.63,73534.8,1.33,-35.77,-36.49,0,*43
1485334920.36,2572,10.63,73532.0,1.33,-35.77,-36.31,0,*4F
1485334921.6,2573,10.63,73538.8,1.33,-35.65,-36.31,0,*4D
1485334922.84,2574,10.63,73538.5,1.33,-35.41,-36.01,0,*4F
1485334924.1,2575,10.63,73534.8,1.33,-35.23,-35.77,0,*48
1485334925.37,2576,10.63,73536.3,1.33,-35.41,-35.95,0,*43
1485334926.62,2577,10.63,73536.5,1.35,-34.95,-35.53,0,*46
1485334927.81,2578,10.63,73534.5,1.35,-35.13,-35.71,0,*46
1485334929.03,2579,10.63,73536.0,1.35,-35.77,-36.49,0,*4D
1485334930.25,2580,10.63,73536.8,1.35,-36.49,-37.27,0,*4C
1485334931.49,2581,10.63,73534.8,1.35,-36.49,-37.09,0,*41
1485334932.68,2582,10.63,73536.3,1.35,-35.47,-36.07,0,*40
1485334933.92,2583,10.63,73536.3,1.35,-35.35,-36.13,0,*41
1485334935.16,2584,10.63,73538.0,1.33,-35.53,-36.19,0,*4A
1485334936.4,2585,10.63,73538.0,1.33,-35.53,-36.01,0,*42
1485334937.68,2586,10.63,73534.0,1.33,-35.23,-35.95,0,*48
1485334938.91,2587,10.63,73538.0,1.33,-36.01,-36.55,0,*45
1485334940.12,2588,10.63,73534.3,1.35,-36.13,-36.67,0,*4E
1485334941.34,2589,10.63,73536.5,1.35,-35.59,-36.25,0,*44
1485334942.57,2590,10.63,73536.0,1.35,-35.47,-35.95,0,*4B
1485334943.81,2591,10.63,73536.8,1.33,-35.65,-36.31,0,*41
1485334945.03,2592,10.63,73536.0,1.33,-36.01,-36.67,0,*40
1485334946.23,2593,10.63,73538.3,1.35,-35.77,-36.31,0,*46
1485334947.44,2594,10.63,73536.0,1.35,-35.47,-35.89,0,*42
1485334948.67,2595,10.63,73536.0,1.35,-35.53,-36.13,0,*46
1485334949.95,2596,10.63,73532.8,1.33,-35.23,-35.95,0,*49
1485334951.2,2597,10.63,73538.5,1.33,-35.23,-35.77,0,*44
1485334952.45,2598,10.56,73532.8,1.35,-35.35,-35.95,0,*46
1485334953.68,2599,10.63,73536.8,1.35,-35.53,-36.13,0,*4A
1485334954.9,2600,10.63,73536.8,1.35,-35.89,-36.49,0,*41
1485334956.12,2601,10.63,73536.0,1.35,-35.47,-36.13,0,*4D
1485334957.34,2602,10.56,73528.8,1.35,-35.47,-36.13,0,*4E
1485334958.56,2603,10.56,73534.3,1.35,-36.25,-36.85,0,*47
1485334959.75,2604,10.56,73532.5,1.35,-36.31,-36.85,0,*45
1485334960.95,2605,10.63,73538.3,1.35,-35.29,-35.77,0,*40
1485334962.2,2606,10.63,73536.8,1.33,-35.35,-36.01,0,*4A
1485334963.42,2607,10.63,73536.5,1.35,-35.89,-36.61,0,*4C
1485334964.64,2608,10.63,73534.8,1.35,-35.95,-36.67,0,*48
1485334965.89,2609,10.63,73536.3,1.33,-35.95,-36.73,0,*4A
1485334967.1,2610,10.63,73536.5,1.31,-36.01,-36.67,0,*4B
1485334968.36,2611,10.63,73538.3,1.33,-35.53,-36.13,0,*4F
1485334969.61,2612,10.56,73532.3,1.33,-35.83,-36.55,0,*43
1485334970.83,2613,10.63,73536.0,1.33,-35.59,-36.31,0,*47
1485334972.09,2614,10.56,73534.0,1.33,-35.65,-36.37,0,*49
1485334973.31,2615,10.63,73534.5,1.35,-35.89,-36.49,0,*45
1485334974.57,2616,10.56,73534.0,1.37,-35.65,-36.37,0,*4F
1485334975.79,2617,10.63,73538.0,1.35,-36.43,-37.21,0,*4D
1485334977.03,2618,10.63,73538.3,1.35,-36.49,-37.09,0,*42
1485334978.25,2619,10.63,73538.8,1.33,-36.01,-36.73,0,*45
1485334979.51,2620,10.63,73538.0,1.33,-35.83,-36.55,0,*42
1485334980.7,2621,10.63,73536.3,1.31,-35.59,-36.19,0,*4E
1485334981.94,2622,10.63,73536.0,1.31,-36.49,-36.91,0,*4F
1485334983.2,2623,10.56,73534.3,1.33,-35.83,-36.55,0,*41
1485334984.46,2624,10.63,73536.3,1.33,-35.53,-36.13,0,*49
1485334985.72,2625,10.56,73532.5,1.33,-35.65,-36.37,0,*4B
1485334986.97,2626,10.63,73532.5,1.33,-36.73,-37.51,0,*4D
1485334988.18,2627,10.63,73534.8,1.33,-37.45,-38.05,0,*46
1485334989.41,2628,10.63,73534.0,1.31,-35.77,-36.37,0,*47
1485334990.63,2629,10.63,73536.3,1.31,-35.23,-35.77,0,*40
1485334991.84,2630,10.63,73538.0,1.31,-35.17,-35.77,0,*4F
1485334993.09,2631,10.63,73536.5,1.31,-35.23,-35.95,0,*45
1485334994.34,2632,10.56,73534.8,1.31,-35.07,-35.65,0,*4F
1485334995.61,2633,10.63,73536.0,1.33,-35.07,-35.65,0,*4C
1485334996.89,2634,10.63,73536.3,1.33,-34.65,-35.23,0,*4C
1485334998.13,2635,10.63,73538.3,1.33,-35.17,-35.65,0,*4B
1485334999.38,2636,10.63,73536.3,1.33,-35.35,-36.01,0,*49
1485335000.63,2637,10.56,73532.0,1.35,-35.35,-35.95,0,*40
1485335001.83,2638,10.63,73538.8,1.35,-35.01,-35.59,0,*48
1485335003.05,2639,10.63,73534.5,1.35,-35.35,-35.89,0,*43
1485335004.26,2640,10.63,73538.3,1.39,-35.47,-36.01,0,*47
1485335005.47,2641,10.56,73538.0,1.35,-35.53,-36.19,0,*46
1485335006.68,2642,10.63,73538.5,1.35,-36.07,-36.61,0,*48
1485335007.9,2643,10.63,73536.8,1.37,-36.19,-36.73,0,*47
1485335009.15,2644,10.56,73532.8,1.35,-36.79,-37.63,0,*44
1485335010.35,2645,10.56,73536.5,1.35,-39.09,-39.91,0,*4E
1485335011.6,2646,10.56,73534.8,1.33,-37.81,-38.61,0,*4B
1485335012.83,2647,10.63,73536.5,1.31,-37.15,-37.99,0,*4D
1485335014.05,2648,10.56,73536.3,1.31,-36.31,-36.91,0,*4C
1485335015.28,2649,10.63,73538.5,1.29,-35.59,-36.01,0,*40
1485335016.5,2650,10.63,73538.8,1.31,-35.59,-36.13,0,*42
1485335017.71,2651,10.56,73536.8,1.31,-35.53,-36.19,0,*43
1485335018.94,2652,10.56,73536.8,1.31,-35.95,-36.55,0,*42
1485335020.2,2653,10.56,73534.8,1.33,-35.41,-36.13,0,*4A
1485335021.43,2654,10.56,73534.0,1.31,-35.95,-36.67,0,*45
1485335022.65,2655,10.63,73538.5,1.31,-35.53,-36.31,0,*4D
1485335023.9,2656,10.63,73536.0,1.31,-36.37,-37.09,0,*45
1485335025.15,2657,10.63,73536.5,1.31,-35.83,-36.49,0,*4D
1485335026.38,2658,10.56,73536.8,1.31,-35.83,-36.55,0,*4F
1485335027.63,2659,10.56,73534.0,1.33,-35.23,-35.77,0,*45
1485335028.83,2660,10.56,73534.5,1.31,-35.17,-35.77,0,*4A
1485335030.04,2661,10.56,73534.3,1.31,-35.41,-36.19,0,*43
1485335031.26,2662,10.56,73534.8,1.31,-35.65,-36.31,0,*4C
1485335032.48,2663,10.63,73538.3,1.33,-35.59,-36.19,0,*4A
1485335033.7,2664,10.56,73534.3,1.33,-35.01,-35.59,0,*47
1485335034.96,2665,10.56,73534.0,1.33,-35.07,-35.77,0,*4C
1485335036.19,2666,10.56,73532.3,1.35,-35.29,-35.95,0,*49
1485335037.44,2667,10.56,73536.3,1.37,-35.07,-35.47,0,*49
1485335038.69,2668,10.63,73536.0,1.37,-34.77,-35.41,0,*46
1485335039.94,2669,10.56,73538.5,1.37,-34.77,-35.41,0,*47
1485335041.16,2670,10.56,73538.0,1.37,-35.13,-35.71,0,*4F
1485335042.37,2671,10.56,73538.0,1.39,-35.29,-36.01,0,*4D
1485335043.6,2672,10.56,73534.0,1.37,-35.29,-36.01,0,*40
1485335044.84,2673,10.56,73536.5,1.37,-35.71,-36.37,0,*49
1485335046.1,2674,10.56,73536.0,1.37,-35.65,-36.37,0,*4B
1485335047.38,2675,10.56,73534.5,1.37,-37.21,-37.93,0,*47
1485335048.57,2676,10.56,73534.5,1.35,-36.43,-37.27,0,*4C
1485335049.82,2677,10.56,73534.8,1.35,-36.61,-37.39,0,*42
1485335051.07,2678,10.56,73538.3,1.35,-35.35,-35.95,0,*4B
1485335052.28,2679,10.56,73536.0,1.37,-35.13,-35.71,0,*46
1485335053.53,2680,10.56,73534.5,1.37,-36.37,-37.15,0,*45
1485335054.78,2681,10.63,73538.3,1.37,-36.73,-37.21,0,*43
1485335056.0,2682,10.56,73538.8,1.35,-35.65,-36.31,0,*46
1485335057.24,2683,10.56,73536.5,1.35,-35.53,-36.25,0,*47
1485335058.46,2684,10.56,73538.3,1.37,-35.29,-36.07,0,*4F
1485335059.71,2685,10.56,73538.0,1.37,-35.29,-35.83,0,*41
1485335060.91,2686,10.56,73538.8,1.35,-35.17,-35.77,0,*46
1485335062.12,2687,10.56,73536.8,1.37,-35.13,-35.71,0,*47
1485335063.34,2688,10.56,73536.8,1.37,-35.47,-36.07,0,*4B
1485335064.55,2689,10.56,73536.3,1.39,-35.29,-36.01,0,*4A
1485335065.75,2690,10.56,73536.8,1.39,-35.29,-36.07,0,*44
1485335066.95,2691,10.56,73536.0,1.39,-36.07,-36.73,0,*49
1485335068.2,2692,10.56,73532.8,1.39,-35.53,-36.25,0,*4B
1485335069.43,2693,10.56,73534.3,1.39,-35.41,-36.01,0,*4F
1485335070.66,2694,10.56,73532.8,1.39,-35.07,-35.47,0,*4B
1485335071.85,2695,10.56,73536.3,1.39,-35.13,-35.71,0,*4A
1485335073.06,2696,10.63,73536.8,1.39,-35.29,-36.01,0,*44
1485335074.31,2697,10.56,73532.8,1.43,-35.17,-35.83,0,*4C
1485335075.55,2698,10.56,73534.3,1.43,-35.01,-35.47,0,*4C
1485335076.8,2699,10.63,73536.8,1.43,-35.07,-35.59,0,*44
1485335078.07,2700,10.56,73532.8,1.43,-35.07,-35.65,0,*4A
1485335079.3,2701,10.56,73538.5,1.45,-35.17,-35.83,0,*44
1485335080.53,2702,10.56,73536.8,1.45,-35.41,-36.01,0,*4D
1485335081.73,2703,10.56,73538.3,1.45,-35.01,-35.59,0,*46
1485335082.94,2704,10.56,73536.3,1.45,-35.01,-35.47,0,*4E
1485335084.16,2705,10.56,73540.3,1.45,-35.65,-36.19,0,*45
1485335085.38,2706,10.56,73536.0,1.47,-35.71,-36.31,0,*4B
1485335086.64,2707,10.56,73536.5,1.45,-36.91,-37.63,0,*43
1485335087.89,2708,10.56,73534.3,1.45,-36.91,-37.69,0,*46
1485335089.13,2709,10.56,73536.0,1.45,-36.13,-36.91,0,*4B
1485335090.36,2710,10.56,73536.0,1.43,-35.77,-36.67,0,*4D
1485335091.64,2711,10.56,73534.0,1.43,-35.95,-36.49,0,*4C
1485335092.92,2712,10.56,73536.8,1.43,-35.35,-35.95,0,*47
1485335094.2,2713,10.63,73540.3,1.43,-35.23,-35.83,0,*46
1485335095.44,2714,10.56,73536.3,1.43,-35.17,-35.65,0,*4E
1485335096.7,2715,10.56,73536.3,1.43,-34.71,-35.41,0,*48
1485335097.98,2716,10.56,73536.0,1.47,-34.83,-35.53,0,*41
1485335099.21,2717,10.56,73536.0,1.47,-35.13,-35.77,0,*4E
1485335100.43,2718,10.56,73538.8,1.45,-35.77,-36.37,0,*46
1485335101.63,2719,10.56,73538.0,1.45,-35.59,-36.31,0,*4D
1485335102.88,2720,10.56,73536.3,1.47,-36.91,-37.75,0,*43
1485335104.09,2721,10.56,73536.0,1.45,-36.01,-36.67,0,*4B
1485335105.31,2722,10.56,73536.8,1.45,-37.33,-38.11,0,*47
1485335106.56,2723,10.56,73534.3,1.45,-37.93,-38.79,0,*42
1485335107.81,2724,10.56,73538.5,1.39,-38.29,-39.23,0,*4E
1485335109.04,2725,10.63,73538.5,1.37,-37.87,-38.55,0,*4A
1485335110.28,2726,10.56,73534.8,1.35,-36.61,-37.09,0,*44
1485335111.52,2727,10.56,73538.5,1.37,-35.53,-36.19,0,*45
1485335112.75,2728,10.56,73536.3,1.37,-35.29,-35.89,0,*4D
1485335113.97,2729,10.56,73538.8,1.37,-35.47,-36.07,0,*41
1485335115.2,2730,10.56,73536.5,1.37,-35.53,-36.19,0,*43
1485335116.42,2731,10.56,73540.8,1.39,-35.41,-36.07,0,*40
1485335117.66,2732,10.56,73538.0,1.39,-35.65,-36.37,0,*46
1485335118.87,2733,10.56,73536.5,1.39,-35.29,-35.89,0,*49
1485335120.08,2734,10.56,73538.3,1.39,-35.29,-35.89,0,*4E
1485335121.33,2735,10.56,73538.8,1.43,-36.37,-37.15,0,*49
1485335122.57,2736,10.56,73538.5,1.39,-35.83,-36.55,0,*4E
1485335123.77,2737,10.56,73538.0,1.39,-37.15,-37.75,0,*41
1485335125.0,2738,10.56,73538.3,1.39,-36.73,-37.51,0,*49
1485335126.26,2739,10.56,73540.0,1.43,-35.95,-36.55,0,*4B
1485335127.51,2740,10.56,73538.8,1.37,-35.83,-36.55,0,*41
1485335128.73,2741,10.56,73538.8,1.37,-35.71,-36.43,0,*4A
1485335129.98,2742,10.56,73538.8,1.37,-35.29,-35.83,0,*4B
1485335131.2,2743,10.56,73538.0,1.37,-35.47,-36.07,0,*4D
1485335132.45,2744,10.56,73538.5,1.39,-36.37,-37.21,0,*45
1485335133.69,2745,10.56,73540.5,1.39,-35.83,-36.55,0,*4A
1485335134.88,2746,10.56,73538.5,1.39,-36.19,-36.97,0,*47
1485335136.1,2747,10.56,73538.3,1.37,-35.47,-36.19,0,*46
1485335137.36,2748,10.56,73538.0,1.37,-35.65,-36.37,0,*45
1485335138.63,2749,10.56,73536.5,1.43,-35.41,-36.13,0,*47
1485335139.86,2750,10.56,73536.0,1.39,-35.41,-36.01,0,*41
1485335141.13,2751,10.56,73536.5,1.43,-35.35,-35.95,0,*40
1485335142.38,2752,10.56,73538.8,1.39,-35.65,-36.37,0,*40
1485335143.62,2753,10.56,73534.8,1.43,-36.19,-36.91,0,*48
1485335144.87,2754,10.56,73538.5,1.39,-36.25,-36.79,0,*4B
1485335146.07,2755,10.56,73538.3,1.39,-35.89,-36.73,0,*45
1485335147.32,2756,10.56,73538.8,1.43,-36.37,-37.27,0,*4D
1485335148.52,2757,10.56,73536.5,1.39,-36.07,-36.73,0,*42
1485335149.75,2758,10.56,73540.5,1.39,-35.29,-35.83,0,*4E
1485335151.0,2759,10.56,73538.8,1.39,-35.07,-35.65,0,*4B
1485335152.26,2760,10.56,73538.5,1.39,-35.07,-35.65,0,*41
1485335153.48,2761,10.56,73542.0,1.43,-34.89,-35.47,0,*4A
1485335154.73,2762,10.56,73540.0,1.43,-35.77,-36.49,0,*44
1485335155.98,2763,10.56,73540.5,1.43,-36.37,-37.15,0,*4A
1485335157.24,2764,10.56,73542.8,1.43,-35.95,-36.55,0,*43
1485335158.52,2765,10.56,73540.0,1.43,-35.35,-35.83,0,*40
1485335159.75,2766,10.56,73542.0,1.39,-36.37,-37.15,0,*42
1485335161.01,2767,10.56,73538.5,1.43,-35.41,-36.13,0,*4B
1485335162.29,2768,10.56,73540.3,1.43,-35.35,-35.95,0,*4A
1485335163.54,2769,10.56,73540.8,1.43,-35.17,-35.83,0,*4C
1485335164.79,2770,10.56,73540.5,1.39,-35.65,-36.25,0,*43
1485335166.05,2771,10.56,73538.8,1.43,-35.95,-36.67,0,*46
1485335167.31,2772,10.56,73536.8,1.43,-35.95,-36.55,0,*44
1485335168.56,2773,10.56,73538.5,1.43,-35.07,-35.47,0,*4E
1485335169.81,2774,10.56,73538.0,1.43,-36.37,-37.15,0,*4C
1485335171.06,2775,10.56,73538.5,1.43,-36.19,-36.91,0,*4C
1485335172.31,2776,10.56,73540.5,1.39,-36.61,-37.39,0,*4E
1485335173.56,2777,10.56,73538.5,1.39,-37.09,-38.11,0,*45
1485335174.81,2778,10.56,73536.5,1.39,-36.61,-37.39,0,*40
1485335176.06,2779,10.56,73532.8,1.39,-36.25,-36.79,0,*44
1485335177.28,2780,10.56,73538.0,1.39,-35.53,-36.19,0,*46
1485335178.47,2781,10.56,73538.3,1.39,-35.47,-36.07,0,*4D
1485335179.67,2782,10.56,73540.0,1.39,-36.07,-36.97,0,*40
1485335180.89,2783,10.56,73536.3,1.39,-35.41,-36.19,0,*46
1485335182.13,2784,10.56,73542.3,1.39,-36.79,-37.69,0,*4F
1485335183.36,2785,10.56,73538.5,1.39,-36.37,-37.03,0,*48
1485335184.59,2786,10.56,73538.8,1.39,-35.83,-36.55,0,*45
1485335185.79,2787,10.56,73536.3,1.39,-36.19,-37.03,0,*46
1485335186.99,2788,10.56,73538.5,1.39,-37.03,-37.87,0,*4F
1485335188.19,2789,10.56,73538.0,1.35,-36.31,-36.85,0,*41
1485335189.43,2790,10.56,73538.5,1.37,-36.25,-36.97,0,*4D
1485335190.63,2791,10.56,73540.8,1.35,-37.03,-37.75,0,*46
1485335191.9,2792,10.56,73536.8,1.37,-36.25,-36.79,0,*4F
1485335193.14,2793,10.56,73540.0,1.35,-35.53,-36.25,0,*47
1485335194.38,2794,10.56,73534.3,1.37,-36.07,-36.61,0,*40
1485335195.6,2795,10.56,73538.8,1.35,-35.77,-36.49,0,*4D
1485335196.82,2796,10.56,73538.0,1.37,-36.19,-37.03,0,*48
1485335198.03,2797,10.56,73538.0,1.35,-36.79,-37.45,0,*4F
1485335199.23,2798,10.56,73532.0,1.35,-37.75,-38.43,0,*44
1485335200.47,2799,10.56,73536.0,1.35,-37.09,-37.93,0,*4C
1485335201.73,2800,10.56,73536.5,1.33,-35.83,-36.55,0,*4E
1485335202.97,2801,10.56,73538.3,1.33,-35.77,-36.37,0,*40
1485335204.22,2802,10.56,73538.8,1.33,-36.97,-37.81,0,*42
1485335205.5,2803,10.56,73538.0,1.33,-37.69,-38.49,0,*48
1485335206.72,2804,10.56,73534.8,1.31,-36.85,-37.99,0,*4C
1485335207.94,2805,10.56,73538.8,1.31,-35.65,-36.31,0,*43
1485335209.17,2806,10.56,73534.5,1.31,-36.73,-37.51,0,*43
1485335210.37,2807,10.56,73532.5,1.31,-36.67,-37.33,0,*43
1485335211.61,2808,10.56,73538.3,1.31,-35.83,-36.37,0,*40
1485335212.83,2809,10.56,73538.3,1.31,-35.65,-36.31,0,*4F
1485335214.05,2810,10.56,73536.0,1.31,-36.19,-37.09,0,*45
1485335215.25,2811,10.56,73536.0,1.31,-36.19,-36.73,0,*48
1485335216.46,2812,10.56,73530.3,1.31,-35.53,-36.19,0,*4A
1485335217.71,2813,10.56,73534.8,1.31,-36.37,-36.91,0,*4A
1485335218.96,2814,10.56,73536.8,1.31,-35.95,-36.49,0,*43
1485335220.16,2815,10.56,73534.5,1.31,-36.31,-36.73,0,*46
1485335221.4,2816,10.56,73536.3,1.31,-35.83,-36.49,0,*46
1485335222.62,2817,10.56,73536.0,1.31,-36.13,-36.73,0,*44
1485335223.82,2818,10.56,73532.8,1.31,-35.59,-36.19,0,*4A
1485335225.05,2819,10.56,73534.3,1.31,-35.83,-36.67,0,*45
1485335226.26,2820,10.56,73534.3,1.31,-35.65,-36.31,0,*44
1485335227.46,2821,10.56,73536.0,1.31,-35.17,-35.77,0,*41
1485335228.69,2822,10.56,73536.8,1.33,-35.01,-35.59,0,*4B
1485335229.93,2823,10.56,73534.0,1.33,-34.89,-35.53,0,*41
1485335231.21,2824,10.56,73534.0,1.33,-35.23,-35.83,0,*4A
1485335232.48,2825,10.56,73534.8,1.33,-35.23,-35.83,0,*4B
1485335233.75,2826,10.56,73532.5,1.37,-35.65,-36.25,0,*41
1485335234.98,2827,10.56,73536.3,1.37,-35.53,-36.19,0,*4A
1485335236.18,2828,10.56,73538.8,1.35,-35.17,-35.77,0,*4C
1485335237.46,2829,10.56,73538.5,1.37,-34.95,-35.65,0,*47
1485335238.67,2830,10.56,73534.5,1.35,-35.35,-36.07,0,*41
1485335239.9,2831,10.56,73534.8,1.37,-35.29,-36.01,0,*49
1485335241.13,2832,10.56,73538.3,1.39,-34.95,-35.47,0,*43
1485335242.39,2833,10.56,73534.3,1.37,-35.83,-36.55,0,*4A
1485335243.6,2834,10.56,73538.8,1.37,-35.47,-36.07,0,*42
1485335244.83,2835,10.56,73536.0,1.39,-34.89,-35.41,0,*4F
1485335246.03,2836,10.56,73538.0,1.39,-34.89,-35.47,0,*4A
1485335247.26,2837,10.56,73540.0,1.39,-34.71,-35.23,0,*4E
1485335248.49,2838,10.56,73536.3,1.43,-34.71,-35.17,0,*4B
1485335249.77,2839,10.56,73538.5,1.43,-34.83,-35.41,0,*44
1485335251.0,2840,10.56,73534.8,1.43,-35.17,-35.77,0,*43
1485335252.25,2841,10.56,73534.5,1.43,-35.01,-35.65,0,*46
1485335253.44,2842,10.56,73536.0,1.45,-35.59,-36.19,0,*46
1485335254.65,2843,10.56,73532.0,1.45,-36.01,-36.67,0,*40
1485335255.88,2844,10.56,73538.0,1.45,-35.83,-36.55,0,*4F
1485335257.14,2845,10.56,73538.8,1.47,-35.35,-35.89,0,*43
1485335258.36,2846,10.56,73538.8,1.45,-36.31,-36.91,0,*4F
1485335259.64,2847,10.56,73538.5,1.43,-35.07,-35.65,0,*46
1485335260.92,2848,10.56,73536.5,1.43,-35.07,-35.83,0,*41
1485335262.14,2849,10.56,73538.5,1.43,-35.59,-36.19,0,*4B
1485335263.39,2850,10.56,73538.8,1.45,-35.83,-36.49,0,*47
1485335264.62,2851,10.56,73542.8,1.45,-35.23,-35.77,0,*42
1485335265.82,2852,10.56,73538.3,1.45,-35.59,-36.19,0,*47
1485335267.07,2853,10.56,73538.3,1.45,-35.23,-35.83,0,*4B
1485335268.33,2854,10.56,73536.8,1.47,-35.35,-35.77,0,*42
1485335269.57,2855,10.56,73536.3,1.45,-35.65,-36.37,0,*43
1485335270.77,2856,10.56,73534.3,1.45,-36.01,-36.55,0,*45
1485335272.0,2857,10.56,73534.0,1.45,-35.47,-36.13,0,*47
1485335273.28,2858,10.56,73538.0,1.47,-34.95,-35.35,0,*43
1485335274.54,2859,10.56,73534.3,1.47,-34.65,-35.29,0,*40
1485335275.82,2860,10.56,73534.0,1.47,-34.95,-35.53,0,*48
1485335277.02,2861,10.56,73536.5,1.45,-36.31,-36.97,0,*4C
1485335278.24,2862,10.56,73536.8,1.47,-35.13,-35.71,0,*45
1485335279.47,2863,10.56,73534.3,1.45,-34.89,-35.41,0,*47
1485335280.72,2864,10.56,73538.0,1.49,-35.35,-35.95,0,*43
1485335281.97,2865,10.56,73534.5,1.49,-36.25,-36.91,0,*47
1485335283.19,2866,10.56,73538.5,1.49,-35.89,-36.61,0,*4E
1485335284.47,2867,10.56,73536.8,1.47,-36.25,-36.61,0,*44
1485335285.72,2868,10.56,73540.3,1.45,-35.35,-35.83,0,*44
1485335286.97,2869,10.56,73542.0,1.47,-34.65,-35.17,0,*4E
1485335288.2,2870,10.56,73540.8,1.47,-35.17,-35.77,0,*44
1485335289.45,2871,10.56,73546.8,1.51,-34.71,-35.23,0,*42
1485335290.68,2872,10.56,73542.5,1.49,-34.83,-35.17,0,*42
1485335291.88,2873,10.56,73544.5,1.49,-35.17,-35.77,0,*49
1485335293.13,2874,10.56,73542.5,1.51,-35.07,-35.71,0,*40
1485335294.37,2875,10.56,73540.5,1.51,-35.29,-35.89,0,*4A
1485335295.61,2876,10.56,73540.8,1.51,-36.07,-36.79,0,*4A
1485335296.84,2877,10.56,73538.3,1.51,-35.71,-36.43,0,*40
1485335298.07,2878,10.56,73542.3,1.51,-35.29,-35.89,0,*47
1485335299.32,2879,10.5,73536.8,1.49,-35.65,-36.25,0,*42
1485335300.54,2880,10.56,73538.5,1.51,-35.13,-35.71,0,*4E
1485335301.77,2881,10.56,73532.8,1.49,-35.29,-35.95,0,*45
1485335303.01,2882,10.56,73532.8,1.49,-36.13,-36.91,0,*4B
1485335304.25,2883,10.56,73538.8,1.49,-35.41,-36.13,0,*44
1485335305.46,2884,10.56,73536.3,1.49,-35.53,-36.19,0,*4A
1485335306.71,2885,10.56,73538.3,1.49,-34.95,-35.41,0,*4E
1485335307.96,2886,10.56,73536.8,1.51,-36.07,-36.61,0,*4C
1485335309.16,2887,10.56,73538.3,1.49,-36.85,-37.57,0,*4A
1485335310.41,2888,10.56,73538.8,1.51,-36.19,-36.79,0,*44